Milan, NH

3:28 AM EDT on September 25, 2016 (GMT -0400)
Berlin Municipal

Weather History for KBML - January, 2011

Change the Weather History Date:

Sunday, January 16, 2011

  Actual Average Record
Temperature  
Mean Temperature 10 °F -  
Max Temperature 19 °F 19 °F 35 °F (1997)
Min Temperature 0 °F 0 °F -38 °F (2009)
Degree Days  
Heating Degree Days 55    
Moisture  
Dew Point 8 °F    
Average Humidity 76    
Maximum Humidity 92    
Minimum Humidity 60    
Precipitation  
Precipitation 0.00 in - - ()
Sea Level Pressure  
Sea Level Pressure 29.85 in    
Wind  
Wind Speed 3 mph (NW)    
Max Wind Speed 12 mph    
Max Gust Speed 20 mph    
Visibility 7 miles    
Events Snow    
Averages and records for this station are not official NWS values.
T = Trace of Precipitation, MM = Missing Value Source: NWS Daily Summary

Daily Weather History Graph

Daily Weather History Graph

Search for Another Location

Airport or City:

Trip Planner

Search our weather history database for the weather conditions in past years. The results will help you decide how hot, cold, wet, or windy it might be!

Date:

Astronomy

Jan. 16, 2011 Rise Set
Actual Time 7:17 AM EST 4:31 PM EST
Civil Twilight 6:45 AM EST 5:04 PM EST
Nautical Twilight 6:09 AM EST 5:40 PM EST
Astronomical Twilight 5:34 AM EST 6:14 PM EST
Moon 1:14 PM EST (1/16) 4:22 AM EST (1/16)
Length of Visible Light 10h 18m
Length of Day
9h 14m
Waxing Gibbous, 88% of the Moon is Illuminated
Jan 16
Waxing Gibbous
Jan 19
Full
Jan 26
Last Quarter
Feb 2
New
Feb 11
First Quarter

Hourly Weather History & Observations

Time (EST) Temp. Windchill Dew Point Humidity Pressure Visibility Wind Dir Wind Speed Gust Speed Precip Events Conditions
12:06 AM 15.8 °F - 12.2 °F 86% 29.67 in 2.5 mi Calm Calm - 0.00 in Snow Light Snow
12:13 AM 15.8 °F - 12.2 °F 86% 29.67 in 4.0 mi Calm Calm - 0.00 in Snow Light Snow
12:27 AM 15.8 °F - 12.2 °F 86% 29.67 in 7.0 mi Calm Calm - 0.00 in Snow Light Snow
12:52 AM 14.0 °F - 12.0 °F 92% 29.73 in 6.0 mi Calm Calm - 0.00 in Snow Light Snow
1:05 AM 12.2 °F - 10.4 °F 92% 29.66 in 7.0 mi Calm Calm - 0.00 in   Overcast
1:34 AM 15.8 °F - 10.4 °F 79% 29.66 in 10.0 mi Calm Calm - 0.00 in   Overcast
1:52 AM 15.1 °F - 12.0 °F 88% 29.74 in 10.0 mi Calm Calm - 0.00 in   Overcast
2:00 AM 12.2 °F - 10.4 °F 92% 29.67 in 8.0 mi Calm Calm - N/A   Overcast
2:40 AM 15.8 °F 10.2 °F 12.2 °F 86% 29.67 in 2.5 mi NNW 3.5 mph - 0.00 in Snow Light Snow
2:47 AM 15.8 °F 10.2 °F 12.2 °F 86% 29.68 in 2.5 mi NNW 3.5 mph - 0.00 in Snow Light Snow
2:52 AM 15.1 °F 9.4 °F 12.9 °F 91% 29.74 in 2.5 mi North 3.5 mph - 0.00 in Snow Light Snow
2:54 AM 15.8 °F 10.2 °F 12.2 °F 86% 29.68 in 3.0 mi NNW 3.5 mph - 0.00 in Snow Light Snow
3:26 AM 12.2 °F - 8.6 °F 85% 29.68 in 7.0 mi Calm Calm - 0.00 in   Overcast
4:24 AM 17.6 °F 12.3 °F 14.0 °F 86% 29.69 in 2.5 mi WNW 3.5 mph - 0.00 in Snow Light Snow
4:37 AM 19.4 °F 14.3 °F 15.8 °F 86% 29.69 in 2.5 mi NNW 3.5 mph - 0.00 in Snow Light Snow
4:52 AM 19.9 °F 13.4 °F 16.0 °F 85% 29.75 in 3.0 mi Variable 4.6 mph - 0.00 in Snow Light Snow
5:38 AM 19.4 °F 9.5 °F 12.2 °F 74% 29.71 in 2.5 mi WNW 8.1 mph 16.1 mph 0.00 in Snow Light Snow
5:52 AM 19.0 °F 9.0 °F 12.9 °F 77% 29.78 in 4.0 mi West 8.1 mph - 0.00 in Snow Light Snow
6:40 AM 17.6 °F 6.4 °F 10.4 °F 73% 29.74 in 10.0 mi West 9.2 mph 16.1 mph 0.00 in   Overcast
6:49 AM 17.6 °F 8.2 °F 10.4 °F 73% 29.75 in 10.0 mi Variable 6.9 mph - 0.00 in   Overcast
7:52 AM 15.1 °F 9.4 °F 9.0 °F 77% 29.87 in 8.0 mi West 3.5 mph - N/A   Overcast
8:52 AM 16.0 °F 8.8 °F 9.0 °F 74% 29.90 in 9.0 mi Variable 4.6 mph - 0.00 in   Overcast
9:52 AM 16.0 °F 3.6 °F 7.0 °F 68% 29.91 in 6.0 mi West 10.4 mph 19.6 mph N/A   Haze
10:02 AM 15.8 °F 2.7 °F 6.8 °F 68% 29.84 in 6.0 mi West 11.5 mph 19.6 mph N/A   Haze
10:52 AM 17.1 °F 6.6 °F 6.1 °F 62% 29.91 in 10.0 mi West 8.1 mph 17.3 mph N/A   Overcast
11:15 AM 17.6 °F 6.4 °F 6.8 °F 63% 29.85 in 10.0 mi West 9.2 mph 19.6 mph N/A   Overcast
11:52 AM 18.0 °F 8.7 °F 7.0 °F 62% 29.91 in 10.0 mi WNW 6.9 mph - N/A   Overcast
12:32 PM 17.6 °F 9.3 °F 6.8 °F 63% 29.84 in 10.0 mi Variable 5.8 mph 17.3 mph N/A   Overcast
12:52 PM 19.9 °F 12.1 °F 8.1 °F 60% 29.91 in 10.0 mi Variable 5.8 mph - N/A   Overcast
1:08 PM 19.4 °F 10.4 °F 8.6 °F 63% 29.85 in 10.0 mi Variable 6.9 mph 16.1 mph N/A   Overcast
1:48 PM 19.4 °F 12.8 °F 8.6 °F 63% 29.86 in 10.0 mi Variable 4.6 mph - N/A   Overcast
1:52 PM 19.9 °F 10.1 °F 9.0 °F 62% 29.92 in 10.0 mi WNW 8.1 mph - N/A   Overcast
2:52 PM 19.0 °F 12.3 °F 8.1 °F 62% 29.95 in 10.0 mi NW 4.6 mph - 0.00 in   Overcast
3:52 PM 17.1 °F 10.0 °F 6.1 °F 62% 29.99 in 10.0 mi NNW 4.6 mph - N/A   Overcast
4:52 PM 15.1 °F 9.4 °F 7.0 °F 70% 29.99 in 5.0 mi WNW 3.5 mph - 0.00 in Snow Light Snow
5:52 PM 15.1 °F 6.4 °F 8.1 °F 74% 30.02 in 3.0 mi NNW 5.8 mph - 0.00 in Snow Light Snow
5:59 PM 15.8 °F 10.2 °F 8.6 °F 73% 29.95 in 2.0 mi NNW 3.5 mph - 0.00 in Snow Light Snow
6:09 PM 15.8 °F - 8.6 °F 73% 29.96 in 3.0 mi Calm Calm - 0.00 in Snow Light Snow
6:52 PM 10.9 °F 4.7 °F 7.0 °F 84% 30.04 in 8.0 mi WNW 3.5 mph - 0.00 in   Overcast
7:21 PM 10.4 °F 2.2 °F 5.0 °F 79% 29.98 in 10.0 mi NW 4.6 mph - N/A   Mostly Cloudy
8:52 PM 1.0 °F - -2.0 °F 87% 30.11 in 10.0 mi Calm Calm - N/A   Clear
9:34 PM 8.6 °F -1.3 °F 1.4 °F 73% 30.05 in 10.0 mi WNW 5.8 mph - N/A   Overcast
9:52 PM 9.0 °F -2.2 °F 1.0 °F 70% 30.13 in 10.0 mi Variable 6.9 mph - N/A   Mostly Cloudy
10:04 PM 8.6 °F 0.1 °F 1.4 °F 73% 30.06 in 10.0 mi Variable 4.6 mph - N/A   Overcast
10:52 PM 7.0 °F -1.7 °F -0.9 °F 70% 30.15 in 10.0 mi WNW 4.6 mph - N/A   Clear
11:52 PM -0.9 °F - -5.1 °F 83% 30.16 in 10.0 mi Calm Calm - N/A   Clear